Location: Fort Worth, Tx
(32.7431°N, 97.3695°W)
Time: 17:30:02
(UTC-04:00)

A-11 Canister half - Pass Details

Date: 23 February 2024
Orbit: 1525 x 1683 km, 47.3° (Epoch: 21 April)

Event Time Altitude Azimuth Distance (km) Brightness Sun altitude
Exits shadow 06:43:29 24° 281° (WNW) 2,789 9.7 -17.8°
Maximum altitude 06:48:32 41° 229° (SW) 2,126 9.4 -16.7°
Drops below altitude 10° 06:57:11 10° 163° (SSE) 3,770 11.3 -14.9°
Sets 07:00:33 0° 156° (SSE) 4,776 12.0 -14.2°
